WB9TLH-12 Weather Reports


time (UTC)temp
F
wind
direction
speed
knots
gust
knots
rain 1hr
in
rain 24hr
in
rain mn
in
humidity
%
barometer
mb
20260906090331 73 9 0.0 0.0 0.00 0.00 0.00 90 1010.8
20260906085831 73 355 0.0 0.0 0.00 0.00 0.00 91 1010.7
20260906085331 73 13 0.0 0.0 0.00 0.00 0.00 91 1010.6
20260906084830 73 324 0.0 0.0 0.00 0.00 0.00 91 1010.6
20260906084330 73 12 0.0 0.0 0.00 0.00 0.00 91 1010.6
20260906083830 73 343 0.0 0.0 0.00 0.00 0.00 91 1010.6
20260906083329 73 33 0.0 0.0 0.00 0.00 0.00 91 1010.6
20260906082829 73 0 0.0 0.0 0.00 0.00 0.00 91 1010.5
20260906082329 73 355 0.0 0.0 0.00 0.00 0.00 92 1010.5
20260906081829 73 13 0.0 0.0 0.00 0.00 0.00 92 1010.4
20260906081328 73 45 0.0 0.0 0.00 0.00 0.00 92 1010.4
20260906080828 73 295 0.0 0.0 0.00 0.00 0.00 92 1010.5
20260906080328 73 36 0.0 0.0 0.00 0.00 0.00 92 1010.5
20260906075827 73 15 0.0 0.0 0.00 0.00 0.00 92 1010.5
20260906075327 73 0 0.0 0.0 0.00 0.00 0.00 92 1010.5
20260906074827 73 68 0.0 0.0 0.00 0.00 0.00 92 1010.5
20260906074327 73 5 0.0 0.0 0.00 0.00 0.00 92 1010.5
20260906073826 73 87 0.0 0.0 0.00 0.00 0.00 92 1010.5
20260906073326 73 22 0.0 0.0 0.00 0.00 0.00 92 1010.5
20260906072826 73 10 0.0 0.0 0.00 0.00 0.00 92 1010.5
20260906072325 73 19 0.0 0.0 0.00 0.00 0.00 92 1010.5
20260906071825 73 5 0.0 0.0 0.00 0.00 0.00 92 1010.7
20260906071325 73 20 0.0 0.0 0.00 0.00 0.00 92 1010.7
20260906070825 73 24 0.0 0.0 0.00 0.00 0.00 92 1010.7
20260906070324 73 355 0.0 0.0 0.00 0.00 0.00 92 1010.6
20260906065824 73 80 0.0 0.0 0.00 0.00 0.00 92 1010.6
20260906065324 73 346 0.0 0.0 0.00 0.00 0.00 91 1010.6
20260906064823 73 23 0.0 0.0 0.00 0.00 0.00 91 1010.6
20260906064323 73 22 0.0 0.0 0.00 0.00 0.00 91 1010.6
20260906063823 73 58 0.0 0.0 0.00 0.00 0.00 91 1010.6
20260906063322 74 355 0.0 0.0 0.00 0.00 0.00 91 1010.7
20260906062823 74 355 0.0 0.0 0.00 0.00 0.00 90 1010.7
20260906062322 74 13 0.0 0.0 0.00 0.00 0.00 90 1010.7
20260906061822 74 21 0.0 0.0 0.00 0.00 0.00 90 1010.8
20260906061321 74 329 0.0 0.0 0.00 0.00 0.00 90 1010.8
20260906060821 74 19 0.0 0.0 0.00 0.00 0.00 89 1010.8
20260906060321 74 15 0.0 0.0 0.00 0.00 0.00 89 1010.7
20260906055820 74 21 0.0 0.0 0.00 0.00 0.00 89 1010.7
20260906055320 74 38 0.0 0.0 0.00 0.00 0.00 88 1010.6
20260906054820 75 48 0.0 0.0 0.00 0.00 0.00 88 1010.5
20260906054320 75 13 0.0 0.0 0.00 0.00 0.00 88 1010.5
20260906053819 75 22 0.0 0.0 0.00 0.00 0.00 87 1010.6
20260906053319 75 40 0.0 0.0 0.00 0.00 0.00 88 1010.6
20260906052819 75 26 0.0 0.0 0.00 0.00 0.00 87 1010.8
20260906052318 76 29 0.0 0.0 0.00 0.00 0.00 87 1010.6
20260906051818 76 29 0.0 0.0 0.00 0.00 0.00 87 1010.6
20260906051318 76 24 0.0 0.0 0.00 0.00 0.00 86 1010.6
20260906050817 76 21 0.0 0.0 0.00 0.00 0.00 86 1010.5
20260906050317 76 21 0.0 0.0 0.00 0.00 0.00 86 1010.4
20260906045817 76 38 0.0 0.0 0.00 0.00 0.00 86 1010.4
20260906045317 76 22 0.0 0.0 0.00 0.00 0.00 85 1010.4
20260906044816 76 22 0.0 0.0 0.00 0.00 0.00 85 1010.3
20260906044316 77 32 0.0 0.0 0.00 0.00 0.00 85 1010.3
20260906043816 77 23 0.0 0.0 0.00 0.00 0.00 84 1010.2
20260906043315 77 9 0.0 0.0 0.00 0.00 0.00 84 1010.2
20260906042815 77 36 0.0 0.0 0.00 0.00 0.00 83 1010.0
20260906042315 77 15 0.0 0.0 0.00 0.00 0.00 82 1010.0
20260906041815 78 25 0.0 0.0 0.00 0.00 0.00 82 1010.0
20260906041314 78 36 0.0 0.0 0.00 0.00 0.00 82 1009.9
20260906040814 78 34 0.0 0.0 0.00 0.00 0.00 81 1009.8
20260906040314 78 21 0.0 0.0 0.00 0.00 0.00 81 1009.9
20260906035813 78 16 0.0 0.0 0.00 0.00 0.00 81 1009.9
20260906035313 78 24 0.0 0.0 0.00 0.00 0.00 81 1009.8
20260906034813 79 12 0.0 0.0 0.00 0.00 0.00 80 1009.9
20260906034313 79 0 0.0 0.0 0.00 0.00 0.00 80 1009.9
20260906033812 79 38 0.0 0.0 0.00 0.00 0.00 80 1010.0
20260906033312 79 59 0.0 0.0 0.00 0.00 0.00 80 1010.0
20260906032812 79 355 0.0 0.0 0.00 0.00 0.00 80 1009.9
20260906032311 80 28 0.0 0.0 0.00 0.00 0.00 80 1009.9
20260906031811 80 24 0.0 0.0 0.00 0.00 0.00 80 1010.0
20260906031311 80 325 0.0 0.0 0.00 0.00 0.00 80 1009.9
20260906030810 80 22 0.0 0.0 0.00 0.00 0.00 80 1009.8
20260906030310 80 344 0.0 0.0 0.00 0.00 0.00 79 1009.8
20260906025810 81 5 0.0 0.0 0.00 0.00 0.00 79 1009.7
20260906025310 81 9 0.0 0.0 0.00 0.00 0.00 79 1009.7
20260906024809 81 20 0.0 0.0 0.00 0.00 0.00 78 1009.6
20260906024309 81 19 0.0 0.0 0.00 0.00 0.00 78 1009.6
20260906023809 81 29 0.0 0.0 0.00 0.00 0.00 78 1009.5
20260906023308 81 26 0.0 0.0 0.00 0.00 0.00 77 1009.5
20260906022808 81 24 0.0 0.0 0.00 0.00 0.00 77 1009.5
20260906022308 82 30 0.0 0.0 0.00 0.00 0.00 77 1009.4
20260906021808 82 25 0.0 0.0 0.00 0.00 0.00 76 1009.3
20260906021307 82 26 0.0 0.0 0.00 0.00 0.00 76 1009.2
20260906020807 82 20 0.0 0.0 0.00 0.00 0.00 76 1009.2
20260906020307 83 27 0.0 0.0 0.00 0.00 0.00 75 1009.3
20260906015806 83 14 0.0 0.0 0.00 0.00 0.00 75 1009.3
20260906015306 83 21 0.0 0.0 0.00 0.00 0.00 75 1009.3
20260906014806 83 24 0.0 0.0 0.00 0.00 0.00 75 1009.2
20260906014306 83 40 0.0 0.0 0.00 0.00 0.00 76 1009.1
20260906013805 83 10 0.0 0.0 0.00 0.00 0.00 76 1008.9
20260906013305 84 12 0.0 0.0 0.00 0.00 0.00 77 1008.8
20260906012805 85 329 0.0 0.0 0.00 0.00 0.00 76 1008.7
20260906012306 85 22 0.0 0.0 0.00 0.00 0.00 75 1008.6
20260906011804 85 25 0.0 0.0 0.00 0.00 0.00 74 1008.4
20260906011304 86 24 0.0 0.0 0.00 0.00 0.00 74 1008.4
20260906010803 86 19 0.0 0.0 0.00 0.00 0.00 74 1008.4
20260906010303 86 24 0.0 0.0 0.00 0.00 0.00 73 1008.3
20260906005803 86 34 0.0 0.0 0.00 0.00 0.00 72 1008.3
20260906005306 87 31 0.0 0.0 0.00 0.00 0.00 72 1008.2
20260906004802 87 27 0.0 0.0 0.00 0.00 0.00 71 1008.2
20260906004302 87 0 0.0 0.0 0.00 0.00 0.00 70 1008.2
20260906003802 88 306 0.0 0.0 0.00 0.00 0.00 69 1008.2
20260906003301 88 32 0.0 0.0 0.00 0.00 0.00 68 1008.2
20260906002801 89 5 0.0 0.0 0.00 0.00 0.00 67 1008.2
20260906002301 89 313 0.0 0.0 0.00 0.00 0.00 66 1008.2
20260906001801 89 310 0.0 0.0 0.00 0.00 0.00 66 1008.2
20260906001300 89 319 0.0 0.0 0.00 0.00 0.00 65 1008.3
20260906000800 89 316 0.0 0.0 0.00 0.00 0.00 65 1008.3
20260906000300 90 327 0.0 0.0 0.00 0.00 0.00 64 1008.4
20260905235759 90 325 0.0 0.0 0.00 0.00 0.00 64 1008.4
20260905235259 90 22 0.0 0.0 0.00 0.00 0.00 63 1008.5
20260905234759 90 14 0.0 0.0 0.00 0.00 0.00 63 1008.5
20260905234259 91 23 0.0 0.0 0.00 0.00 0.00 62 1008.5
20260905233758 91 20 0.0 0.0 0.00 0.00 0.00 61 1008.4
20260905233258 91 302 0.0 0.0 0.00 0.00 0.00 61 1008.4
20260905232758 91 18 0.0 0.0 0.00 0.00 0.00 61 1008.5
20260905232257 91 15 0.0 0.0 0.00 0.00 0.00 61 1008.4
20260905231757 91 5 0.0 0.0 0.00 0.00 0.00 61 1008.4
20260905231257 91 322 0.0 0.0 0.00 0.00 0.00 60 1008.3
20260905230756 92 20 0.0 0.0 0.00 0.00 0.00 60 1008.3
20260905230256 92 335 0.0 0.0 0.00 0.00 0.00 59 1008.3
20260905225756 92 332 0.0 0.0 0.00 0.00 0.00 59 1008.2
20260905225256 92 302 0.0 0.0 0.00 0.00 0.00 58 1008.1
20260905224755 92 281 0.0 0.0 0.00 0.00 0.00 59 1008.0
20260905224255 92 302 0.0 0.0 0.00 0.00 0.00 58 1008.1
20260905223755 92 290 0.0 0.0 0.00 0.00 0.00 58 1008.0
20260905223254 92 282 0.0 0.0 0.00 0.00 0.00 58 1008.2
20260905222754 92 50 0.0 0.0 0.00 0.00 0.00 58 1008.1
20260905222254 92 37 0.0 0.0 0.00 0.00 0.00 58 1008.1
20260905221754 92 28 0.0 0.0 0.00 0.00 0.00 58 1008.1
20260905221253 92 311 0.0 0.0 0.00 0.00 0.00 57 1008.0
20260905220753 93 0 0.0 0.0 0.00 0.00 0.00 57 1008.0
20260905220253 93 341 0.0 0.0 0.00 0.00 0.00 57 1007.8
20260905215752 93 23 0.0 0.0 0.00 0.00 0.00 57 1007.9
20260905215252 93 17 0.0 0.0 0.00 0.00 0.00 57 1007.9
20260905214752 93 305 0.0 0.0 0.00 0.00 0.00 57 1008.2
20260905214251 93 20 0.0 0.0 0.00 0.00 0.00 56 1008.2
20260905213751 93 319 0.0 0.0 0.00 0.00 0.00 56 1008.1
20260905213251 93 0 0.0 0.0 0.00 0.00 0.00 56 1008.2
20260905212751 93 307 0.0 0.0 0.00 0.00 0.00 56 1008.1
20260905212250 93 286 0.0 0.0 0.00 0.00 0.00 55 1008.1
20260905211750 93 355 0.0 0.0 0.00 0.00 0.00 56 1008.2
20260905211250 93 11 0.0 0.0 0.00 0.00 0.00 55 1008.2
20260905210749 93 294 0.0 0.0 0.00 0.00 0.00 55 1008.2
20260905210249 93 306 0.0 0.0 0.00 0.00 0.00 56 1008.2
20260905205749 93 284 0.0 0.0 0.00 0.00 0.00 55 1008.4
20260905205249 93 0 0.0 0.0 0.00 0.00 0.00 54 1008.5
20260905204748 93 5 0.0 0.0 0.00 0.00 0.00 55 1008.5
20260905204248 94 310 0.0 0.0 0.00 0.00 0.00 53 1008.5
20260905203748 94 281 0.0 0.0 0.00 0.00 0.00 54 1008.8
20260905203247 94 317 0.0 0.0 0.00 0.00 0.00 55 1008.8
20260905202747 93 0 0.0 0.0 0.00 0.00 0.00 55 1008.9
20260905202247 93 292 0.0 0.0 0.00 0.00 0.00 54 1008.9
20260905201746 93 21 0.0 0.0 0.00 0.00 0.00 55 1009.0
20260905201246 93 311 0.0 0.0 0.00 0.00 0.00 54 1009.0
20260905200746 93 280 0.0 0.0 0.00 0.00 0.00 53 1008.9
20260905200246 93 321 0.0 0.0 0.00 0.00 0.00 54 1008.9
20260905195745 94 5 0.0 0.0 0.00 0.00 0.00 53 1009.0
20260905195245 94 248 0.0 0.0 0.00 0.00 0.00 53 1008.9
20260905194745 94 282 0.0 0.0 0.00 0.00 0.00 53 1009.0
20260905194244 94 236 0.0 0.0 0.00 0.00 0.00 53 1009.0
20260905193744 94 278 0.0 0.0 0.00 0.00 0.00 53 1009.1
20260905193244 93 313 0.0 0.0 0.00 0.00 0.00 54 1009.1
20260905192744 93 220 0.0 0.0 0.00 0.00 0.00 53 1009.1
20260905192243 93 276 0.0 0.0 0.00 0.00 0.00 54 1009.2
20260905191743 93 285 0.0 0.0 0.00 0.00 0.00 54 1009.2
20260905191243 93 286 0.0 0.0 0.00 0.00 0.00 53 1009.3
20260905190742 93 223 0.0 0.0 0.00 0.00 0.00 54 1009.4
20260905190242 93 289 0.0 0.0 0.00 0.00 0.00 54 1009.5
20260905185742 93 308 0.0 0.0 0.00 0.00 0.00 53 1009.5
20260905185242 93 170 0.0 0.0 0.00 0.00 0.00 54 1009.7
20260905184741 93 273 0.0 0.0 0.00 0.00 0.00 54 1009.7
20260905184241 93 0 0.0 0.0 0.00 0.00 0.00 54 1009.8
20260905183741 93 233 0.0 0.0 0.00 0.00 0.00 53 1010.0
20260905183240 93 227 0.0 0.0 0.00 0.00 0.00 54 1010.0
20260905182740 93 192 0.0 0.0 0.00 0.00 0.00 52 1010.1
20260905182240 93 146 0.0 0.0 0.00 0.00 0.00 53 1010.1
20260905181739 92 204 0.0 0.0 0.00 0.00 0.00 54 1010.1
20260905181239 92 236 0.0 0.0 0.00 0.00 0.00 54 1010.1
20260905180739 92 121 0.0 0.0 0.00 0.00 0.00 54 1010.1
20260905180239 92 225 0.0 0.0 0.00 0.00 0.00 54 1010.2
20260905175738 91 233 0.0 0.0 0.00 0.00 0.00 55 1010.1
20260905175238 91 201 0.0 0.0 0.00 0.00 0.00 56 1010.2
20260905174738 91 205 0.0 0.0 0.00 0.00 0.00 55 1010.3
20260905174237 91 169 0.0 0.0 0.00 0.00 0.00 55 1010.3
20260905173737 91 197 0.0 0.0 0.00 0.00 0.00 55 1010.4
20260905173237 91 275 0.0 0.0 0.00 0.00 0.00 55 1010.4
20260905172737 90 0 0.0 0.0 0.00 0.00 0.00 55 1010.5
20260905172236 90 221 0.0 0.0 0.00 0.00 0.00 56 1010.5
20260905171736 89 176 0.0 0.0 0.00 0.00 0.00 55 1010.6
20260905171236 89 177 0.0 0.0 0.00 0.00 0.00 56 1010.7
20260905170735 88 201 0.0 0.0 0.00 0.00 0.00 56 1010.8
20260905170235 89 202 0.0 0.0 0.00 0.00 0.00 55 1010.9
20260905165735 89 0 0.0 0.0 0.00 0.00 0.00 55 1011.0
20260905165234 89 205 0.0 0.0 0.00 0.00 0.00 55 1011.1
20260905164734 89 78 0.0 0.0 0.00 0.00 0.00 55 1011.2
20260905164234 89 130 0.0 0.0 0.00 0.00 0.00 55 1011.3
20260905163734 89 136 0.0 0.0 0.00 0.00 0.00 55 1011.2
20260905163233 88 188 0.0 0.0 0.00 0.00 0.00 56 1011.2
20260905162733 88 150 0.0 0.0 0.00 0.00 0.00 55 1011.3
20260905162233 87 155 0.0 0.0 0.00 0.00 0.00 56 1011.1
20260905161732 87 168 0.0 0.0 0.00 0.00 0.00 56 1011.2
20260905161232 87 144 0.0 0.0 0.00 0.00 0.00 57 1011.2
20260905160732 87 142 0.0 0.0 0.00 0.00 0.00 57 1011.1
20260905160232 86 170 0.0 0.0 0.00 0.00 0.00 56 1011.1
20260905155731 86 138 0.0 0.0 0.00 0.00 0.00 57 1011.2
20260905155231 86 0 0.0 0.0 0.00 0.00 0.00 57 1011.4
20260905154731 86 122 0.0 0.0 0.00 0.00 0.00 58 1011.6
20260905154230 85 173 0.0 0.0 0.00 0.00 0.00 58 1011.7
20260905153730 84 161 0.0 0.0 0.00 0.00 0.00 59 1011.7
20260905153230 84 103 0.0 0.0 0.00 0.00 0.00 59 1011.7
20260905152730 83 0 0.0 0.0 0.00 0.00 0.00 60 1011.5
20260905152229 83 139 0.0 0.0 0.00 0.00 0.00 60 1011.5
20260905151729 83 113 0.0 0.0 0.00 0.00 0.00 61 1011.4
20260905151229 83 133 0.0 0.0 0.00 0.00 0.00 61 1011.5
20260905150728 83 0 0.0 0.0 0.00 0.00 0.00 61 1011.5
20260905150228 83 67 0.0 0.0 0.00 0.00 0.00 61 1011.5
20260905145728 82 143 0.0 0.0 0.00 0.00 0.00 64 1011.4
20260905145227 82 0 0.0 0.0 0.00 0.00 0.00 64 1011.5
20260905144727 82 101 0.0 0.0 0.00 0.00 0.00 64 1011.6
20260905144227 81 125 0.0 0.0 0.00 0.00 0.00 65 1011.7
20260905143727 81 106 0.0 0.0 0.00 0.00 0.00 65 1011.7
20260905143226 81 86 0.0 0.0 0.00 0.00 0.00 66 1011.8
20260905142726 80 102 0.0 0.0 0.00 0.00 0.00 66 1011.9
20260905142226 80 95 0.0 0.0 0.00 0.00 0.00 66 1012.0
20260905141725 80 94 0.0 0.0 0.00 0.00 0.00 67 1012.0
20260905141225 80 97 0.0 0.0 0.00 0.00 0.00 66 1011.9
20260905140725 80 110 0.0 0.0 0.00 0.00 0.00 67 1011.8
20260905140225 80 119 0.0 0.0 0.00 0.00 0.00 67 1011.9
20260905135724 79 124 0.0 0.0 0.00 0.00 0.00 68 1011.8
20260905135224 79 102 0.0 0.0 0.00 0.00 0.00 70 1011.8
20260905134724 78 127 0.0 0.0 0.00 0.00 0.00 71 1011.8
20260905134223 78 88 0.0 0.0 0.00 0.00 0.00 71 1012.0
20260905133723 78 92 0.0 0.0 0.00 0.00 0.00 72 1012.1
20260905133223 77 92 0.0 0.0 0.00 0.00 0.00 75 1011.9
20260905132723 77 55 0.0 0.0 0.00 0.00 0.00 76 1012.1
20260905132222 77 72 0.0 0.0 0.00 0.00 0.00 76 1012.1
20260905131722 77 109 0.0 0.0 0.00 0.00 0.00 77 1012.1
20260905131222 76 68 0.0 0.0 0.00 0.00 0.00 79 1012.0
20260905130721 76 90 0.0 0.0 0.00 0.00 0.00 80 1012.0
20260905130221 76 92 0.0 0.0 0.00 0.00 0.00 80 1011.9
20260905125721 76 70 0.0 0.0 0.00 0.00 0.00 81 1011.9
20260905125220 76 100 0.0 0.0 0.00 0.00 0.00 82 1011.9
20260905124720 76 62 0.0 0.0 0.00 0.00 0.00 82 1011.8
20260905124220 76 82 0.0 0.0 0.00 0.00 0.00 82 1011.8
20260905123720 76 17 0.0 0.0 0.00 0.00 0.00 84 1011.6
20260905123219 76 85 0.0 0.0 0.00 0.00 0.00 84 1011.7
20260905122719 77 65 0.0 0.0 0.00 0.00 0.00 83 1011.7
20260905122219 78 100 0.0 0.0 0.00 0.00 0.00 82 1011.7
20260905121718 79 68 0.0 0.0 0.00 0.00 0.00 80 1011.6
20260905121218 80 28 0.0 0.0 0.00 0.00 0.00 76 1010.9
20260905120718 80 28 0.0 0.0 0.00 0.00 0.00 76 1011.0
20260905120218 80 295 0.0 0.0 0.00 0.00 0.00 73 1010.8
20260905115717 80 282 0.0 0.0 0.00 0.00 0.00 74 1010.6
20260905115217 80 283 0.0 0.0 0.00 0.00 0.00 73 1010.5
20260905114717 80 248 0.0 0.0 0.00 0.00 0.00 74 1010.4
20260905114216 80 245 0.0 0.0 0.00 0.00 0.00 74 1010.5
20260905113716 80 254 0.0 0.0 0.00 0.00 0.00 74 1010.4
20260905113216 80 252 0.0 0.0 0.00 0.00 0.00 75 1010.4
20260905112715 80 287 0.0 0.0 0.00 0.00 0.00 75 1010.3
20260905112215 80 263 0.0 0.0 0.00 0.00 0.00 75 1010.3
20260905111715 80 262 0.0 0.0 0.00 0.00 0.00 75 1010.2
20260905111215 80 283 0.0 0.0 0.00 0.00 0.00 76 1010.2
20260905110714 80 283 0.0 0.0 0.00 0.00 0.00 76 1010.2
20260905110214 80 254 0.0 0.0 0.00 0.00 0.00 76 1010.1
20260905105714 80 248 0.0 0.0 0.00 0.00 0.00 77 1010.0
20260905105213 80 0 0.0 0.0 0.00 0.00 0.00 77 1010.0
20260905104713 80 257 0.0 0.0 0.00 0.00 0.00 77 1010.0
20260905104213 80 247 0.0 0.0 0.00 0.00 0.00 77 1010.1
20260905103713 80 254 0.0 0.0 0.00 0.00 0.00 78 1010.1
20260905103212 80 259 0.0 0.0 0.00 0.00 0.00 78 1010.2
20260905102712 80 259 0.0 0.0 0.00 0.00 0.00 78 1010.3
20260905102212 80 254 0.0 0.0 0.00 0.00 0.00 78 1010.3
20260905101711 80 254 0.0 0.0 0.00 0.00 0.00 78 1010.4
20260905101211 80 257 0.0 0.0 0.00 0.00 0.00 78 1010.3
20260905100711 80 255 0.0 0.0 0.00 0.00 0.00 78 1010.3
20260905100211 80 254 0.0 0.0 0.00 0.00 0.00 78 1010.2
20260905095710 80 257 0.0 0.0 0.00 0.00 0.00 78 1010.2
20260905095210 81 257 0.0 0.0 0.00 0.00 0.00 78 1010.1
20260905094710 81 257 0.0 0.0 0.00 0.00 0.00 78 1010.1
20260905094209 81 258 0.0 0.0 0.00 0.00 0.00 77 1010.1
20260905093709 81 263 0.0 0.0 0.00 0.00 0.00 77 1010.1
20260905093209 81 249 0.0 0.0 0.00 0.00 0.00 77 1010.0
20260905092708 81 265 0.0 0.0 0.00 0.00 0.00 78 1010.0
20260905092208 81 244 0.0 0.0 0.00 0.00 0.00 78 1010.0
20260905091708 81 254 0.0 0.0 0.00 0.00 0.00 78 1010.0
20260905091208 81 0 0.0 0.0 0.00 0.00 0.00 78 1010.0